Miscellaneous Local Product
Issued by NWS Hastings, NE

Home | Current Version | Previous Version | Text Only | Print | Product List | Glossary Off
Versions: 1 2 3 4 5 6 7 8 9 10 11 12 13 14 15 16 17 18 19 20 21 22 23 24 25 26 27 28 29 30 31 32 33 34 35 36 37 38 39 40 41 42 43 44 45 46 47 48 49 50

333
AXUS43 KGID 240102
MISGRI

GID CWA HOURLY WEATHER ROUNDUP
NATIONAL WEATHER SERVICE HASTINGS NE
800 PM CDT MON MAY 23 2016

NOTE: "FAIR" INDICATES FEW OR NO CLOUDS BELOW 12,000 FEET WITH NO
SIGNIFICANT WEATHER AND/OR OBSTRUCTIONS TO VISIBILITY.

...SOUTH CENTRAL NEBRASKA...

CITY           SKY/WX    TMP DP  RH WIND       PRES   REMARKS
GRAND ISLAND   TSTM      63  61  93 S20       29.75F VSB 1/4
HASTINGS       LGT RAIN  69  65  86 SE9       29.75S
KEARNEY        MOCLDY    72  64  78 CALM      29.76R
ORD            CLEAR     75  53  46 S3        29.73S
YORK           CLOUDY    72  59  64 S8        29.76R
AURORA         LGT RAIN  68  62  82 S8G20     29.74F
LEXINGTON      CLEAR     76  54  45 CALM      29.76S
HOLDREGE       MOCLDY    74  56  53 CALM      29.76S
HEBRON         MOCLDY    73  62  68 S8        29.76S

...NEBRASKA PANHANDLE...

CITY           SKY/WX    TMP DP  RH WIND       PRES   REMARKS
CHADRON        CLOUDY    68  34  28 S20G29    29.78R
ALLIANCE       LGT RAIN  51  45  79 S17G24    29.91R
SCOTTSBLUFF    PTSUNNY   55  46  71 SE14      29.87F
SIDNEY         MOSUNNY   53  43  68 N22G32    29.89S

...WESTERN AND NORTH CENTRAL NEBRASKA...

CITY           SKY/WX    TMP DP  RH WIND       PRES   REMARKS
VALENTINE      SUNNY     73  37  27 W9        29.74S
AINSWORTH      CLEAR     74  39  28 W7        29.75S
ONEILL         CLEAR     75  53  46 S3        29.74S
BROKEN BOW     CLEAR     76  46  34 NW5       29.76S
IMPERIAL       SUNNY     72  41  32 E5        29.81S
NORTH PLATTE   CLEAR     72  51  47 NW6       29.78S HAZE
MCCOOK         CLEAR     76  49  38 CALM      29.77F

...EASTERN NEBRASKA...

CITY           SKY/WX    TMP DP  RH WIND       PRES   REMARKS
NORFOLK        CLOUDY    70  62  76 S5        29.75R
SO SIOUX CITY  CLOUDY    68  64  87 S9        29.76R
TEKAMAH        LGT RAIN  66  64  93 S8        29.76F
COLUMBUS       CLOUDY    73  59  60 SW5       29.76R
ALBION         CLOUDY    73  61  66 S7        29.75S
OMAHA EPPLEY   CLOUDY    71  63  75 S9        29.77S
OFFUTT AFB     CLOUDY    71  64  76 SE9       29.77S
MILLARD        CLOUDY    73  62  69 SE6       29.76F
LINCOLN        CLOUDY    73  61  65 SE16G22   29.77R
NEBRASKA CITY  CLOUDY    70  60  71 S14       29.79S
BEATRICE       MOCLDY    73  62  66 S13       29.77F
FALLS CITY     CLOUDY    70  62  76 SE9       29.79S

...NORTHERN KANSAS...

CITY           SKY/WX    TMP DP  RH WIND       PRES   REMARKS
GOODLAND       SUNNY     73  49  42 SE7       29.79F
HILL CITY      CLEAR     77  63  61 S6        29.75S
NORTON         CLEAR     75  54  46 NW5       29.76S
PHILLIPSBURG   MOCLDY    73  64  73 S6        29.74S
SMITH CENTER   MOCLDY    72  63  73 SE10      29.75R
BELOIT         MOCLDY    73  63  68 SE10G20   29.74S
HAYS           CLEAR     77  63  61 S10       29.75S
RUSSELL        MOCLDY    76  66  71 S14       29.74S
CONCORDIA      PTCLDY    72  61  68 S15       29.76S
SALINA         CLOUDY    73  61  65 S15G22    29.78R
TOPEKA         CLOUDY    70  60  70 S9        29.83R



USA.gov is the U.S. government's official web portal to all federal, state and local government web resources and services.